GW0418 Weather Reports


time (UTC)temp
F
wind
direction
speed
knots
gust
knots
rain 1hr
in
rain 24hr
in
rain mn
in
humidity
%
barometer
mb
20260507044538 37 299 0.0 0.0 0.00 0.00 0.00 67 1015.1
20260507043032 38 299 0.0 0.0 0.00 0.00 0.00 66 1015.2
20260507041532 39 299 0.0 0.0 0.00 0.00 0.00 65 1015.3
20260507040035 39 299 0.0 0.0 0.00 0.00 0.00 64 1015.4
20260507034532 40 299 0.9 0.0 0.00 0.00 0.00 62 1015.5
20260507033032 40 299 0.0 0.0 0.00 0.00 0.00 63 1015.5
20260507031529 40 263 0.9 0.0 0.00 0.00 0.00 62 1015.6
20260507030030 41 279 1.7 0.0 0.00 0.00 0.00 60 1015.6
20260507024532 41 300 0.9 0.0 0.00 0.00 0.00 60 1015.5
20260507023029 41 296 0.9 0.0 0.00 0.00 0.00 60 1015.5
20260507021528 41 279 0.0 0.0 0.00 0.00 0.00 60 1015.5
20260507020028 41 298 2.6 0.0 0.00 0.00 0.00 58 1015.4
20260507014541 41 256 0.9 0.0 0.00 0.00 0.00 57 1015.4
20260507013026 41 281 0.9 0.0 0.00 0.00 0.00 59 1015.4
20260507011528 42 255 2.6 0.0 0.00 0.00 0.00 58 1015.4
20260507010029 42 250 2.6 0.0 0.00 0.00 0.00 56 1015.4
20260507004525 42 286 1.7 0.0 0.00 0.00 0.00 57 1015.5
20260507003024 42 281 3.5 0.0 0.00 0.00 0.00 57 1015.6
20260507001527 42 277 3.5 0.0 0.00 0.00 0.00 57 1015.7
20260507000032 42 289 4.3 0.0 0.00 0.00 0.00 55 1015.8
20260506234523 42 256 3.5 0.0 0.00 0.00 0.00 56 1015.9
20260506233023 42 287 4.3 0.0 0.00 0.00 0.00 54 1016.0
20260506231522 42 252 3.5 0.0 0.00 0.00 0.00 54 1016.1
20260506230022 42 252 4.3 0.0 0.00 0.00 0.00 56 1016.2
20260506224521 42 269 3.5 0.0 0.00 0.00 0.00 56 1016.3
20260506223021 42 298 3.5 0.0 0.00 0.00 0.00 55 1016.3
20260506221521 42 286 3.5 0.0 0.00 0.00 0.00 55 1016.4
20260506220023 42 263 5.2 0.0 0.00 0.00 0.00 56 1016.5
20260506214519 42 246 5.2 0.0 0.00 0.00 0.00 57 1016.6
20260506213019 42 266 5.2 0.0 0.00 0.00 0.00 56 1016.6
20260506211520 42 261 4.3 0.0 0.00 0.00 0.00 57 1016.6
20260506210018 42 267 5.2 0.0 0.00 0.00 0.00 56 1016.7
20260506204523 42 267 6.1 0.0 0.00 0.00 0.00 57 1016.8
20260506203018 42 253 6.1 0.0 0.00 0.00 0.00 54 1016.7
20260506201518 42 284 5.2 0.0 0.00 0.00 0.00 54 1016.7
20260506200015 42 275 5.2 0.0 0.00 0.00 0.00 53 1016.7
20260506194517 42 269 4.3 0.0 0.00 0.00 0.00 54 1016.7
20260506193012 42 215 5.2 0.0 0.00 0.00 0.00 54 1016.8
20260506191512 42 360 4.3 0.0 0.00 0.00 0.00 54 1016.7
20260506190010 42 265 4.3 0.0 0.00 0.00 0.00 55 1016.7
20260506184509 41 317 3.5 0.0 0.00 0.00 0.00 55 1016.8
20260506183007 41 307 4.3 0.0 0.00 0.00 0.00 56 1017.1
20260506181504 40 345 4.3 0.0 0.00 0.00 0.00 58 1017.3
20260506180002 40 317 3.5 0.0 0.00 0.00 0.00 62 1017.4
20260506174501 39 290 4.3 0.0 0.00 0.00 0.00 60 1017.5
20260506173106 39 281 3.5 0.0 0.00 0.00 0.00 61 1017.6
20260506171603 39 325 4.3 0.0 0.00 0.00 0.00 61 1017.8
20260506170106 38 268 3.5 0.0 0.00 0.00 0.00 63 1017.8
20260506164602 38 272 3.5 0.0 0.00 0.00 0.00 63 1017.9
20260506163111 38 312 2.6 0.0 0.00 0.00 0.00 63 1018.0
20260506161556 38 331 2.6 0.0 0.00 0.00 0.00 63 1018.1
20260506160051 37 346 2.6 0.0 0.00 0.00 0.00 65 1018.0
20260506154607 37 275 3.5 0.0 0.00 0.00 0.00 63 1018.1
20260506153055 36 16 3.5 0.0 0.00 0.00 0.00 64 1018.1
20260506151548 36 300 3.5 0.0 0.00 0.00 0.00 64 1018.0
20260506150045 37 302 3.5 0.0 0.00 0.00 0.00 64 1017.8
20260506144546 36 263 5.2 0.0 0.00 0.00 0.00 66 1017.9
20260506143056 36 307 4.3 0.0 0.00 0.00 0.00 65 1017.8
20260506141542 36 313 3.5 0.0 0.00 0.00 0.00 66 1017.7
20260506140039 36 293 3.5 0.0 0.00 0.00 0.00 65 1017.6
20260506134536 36 316 3.5 0.0 0.00 0.00 0.00 67 1017.6
20260506133034 36 322 3.5 0.0 0.00 0.00 0.00 67 1017.4
20260506131533 36 331 2.6 0.0 0.00 0.00 0.00 68 1017.3
20260506130031 36 340 3.5 0.0 0.00 0.00 0.00 67 1017.2
20260506124527 35 9 3.5 0.0 0.00 0.00 0.00 68 1017.2
20260506123028 35 295 3.5 0.0 0.00 0.00 0.00 67 1017.1
20260506121524 36 346 3.5 0.0 0.00 0.00 0.00 68 1016.9
20260506120025 35 301 3.5 0.0 0.00 0.00 0.00 68 1016.7
20260506114518 35 287 2.6 0.0 0.00 0.00 0.00 69 1016.5
20260506113018 35 298 2.6 0.0 0.00 0.00 0.00 70 1016.4
20260506111517 35 279 1.7 0.0 0.00 0.00 0.00 69 1016.3
20260506110015 35 305 2.6 0.0 0.00 0.00 0.00 70 1016.2
20260506104513 35 317 2.6 0.0 0.00 0.00 0.00 70 1016.2
20260506103013 35 292 2.6 0.0 0.00 0.00 0.00 71 1016.0
20260506101511 35 288 1.7 0.0 0.00 0.00 0.00 72 1016.0
20260506100011 34 288 1.7 0.0 0.00 0.00 0.00 73 1015.9
20260506094510 34 290 2.6 0.0 0.00 0.00 0.00 73 1015.9
20260506093009 34 288 2.6 0.0 0.00 0.00 0.00 72 1015.8
20260506091508 34 274 2.6 0.0 0.00 0.00 0.00 73 1015.8
20260506090006 34 277 1.7 0.0 0.00 0.00 0.00 73 1015.7
20260506084504 34 223 1.7 0.0 0.00 0.00 0.00 72 1015.7
20260506083002 34 272 2.6 0.0 0.00 0.00 0.00 71 1015.6
20260506081600 34 250 1.7 0.0 0.00 0.00 0.00 72 1015.6
20260506080104 34 287 1.7 0.0 0.00 0.00 0.00 72 1015.7
20260506073100 34 294 1.7 0.0 0.00 0.00 0.00 71 1015.5
20260506071556 34 309 0.9 0.0 0.00 0.00 0.00 72 1015.4
20260506061551 33 260 0.0 0.0 0.00 0.00 0.00 72 1015.4